STARLINK-11311, 61253

Orbit data source: Space-Track

STARLINK-11311, 61253 is a payload satellite owned by SpaceX/Seattle (US) in LEO that was launched on Wed, 25 Sep 2024 UTC via an FALCON 9 launch vehicle from the Air Force Western Test Range (AFWTR). Payload-class satellites include a variety of spacecraft equipped with specific instruments for various scientific and technological missions. These include communications satellites like Starlink; space stations such as the ISS; scientific satellites like the Hubble; Earth observation satellites from companies like Planet Labs, Umbra, and HawkEye 360; GPS; miniature CubeSats for education and research; and military/defense satellites.

Loading next visibility...
Identifier
61253, 2024-175L
Orbit
LEO
Last TLE update
11 hours ago
Origin
Manufacturer
SpaceX/Seattle
Mission
Operational Commercial Communications
Bus & Motor
STARLINK V2M, Unknown motor
Mass
730 kg wet, ~700 kg dry
Launch date (UTC)
2024-09-25 (10 months ago)
Launch vehicle
FALCON 9
Launch site
Air Force Western Test Range (AFWTR)
Object type
Payload
Rocket body
Debris
Shape & HBR
Box + 2 Pan, 14.5 m
Radar Cross Section
36.964 m², Large (>1 m²)

Expand to show TLE details & history

TLE from 11 hours ago
0 STARLINK-11311
1 61253U 24175L   25199.51262236  .00000905  00000-0  12319-4 0  9993
2 61253  53.1586 130.8678 0000715 107.3236 252.7860 15.69710714 47793
Epoch: 2025-07-18T12:18Z
TLE epoch observation values (Epoch: 2025-07-18T12:18:10.571Z)
Latitude
-0.00006°
Longitude
9.7607°
Altitude
360.782 km
Speed
7.694 km/s
True Right ascension
08h 43m 28s
True Declination
0° 00' 00"
Sunlit
Object was in daylight at epoch
Visualization orbit readout
Latitude
25.72851°
Longitude
166.39528°
Altitude
360.424 km
Speed
7.697 km/s
Apparent Right ascension
21h 27m 26s
Apparent Declination
-7° 46' 28"
Sunlit
Object is in full shadow
Visualization observer readout
Local Sidereal Time
12:25:04
Azimuth
63.187° ENE
Elevation
-39.026°
Doppler factor
1
Orbital elements
Apogee altitude
360.467 km
Perigee altitude
359.504 km
Semi-major axis
6,738.123 km
Eccentricity
0.00007
Inclination
53.1586°
RAAN
130.8678°
Arg. of periapsis
107.3236°
True anomaly
252.77817°
Mean anomaly
252.786°
Eccentric anomaly
252.78209°
Mean motion
3.92405 °/min
Orbital period
91.74 mins
BSTAR
0.000012319
Loading maneuver chart data...
Loading SW <> Apogee altitude chart data...
Loading historical data...
Loading historical data...
Loading historical data...
Loading historical data...
Loading historical data...
Loading historical data...
Loading historical data...
|